DL6DJ-15 Weather Reports


Display with metric or nautical units.
time (UTC)temp
F
wind
direction
speed
MPH
gust
MPH
rain 1hr
in
rain 24hr
in
rain mn
in
humidity
%
barometer
mb
20260505173641 61 0.0 0.0 0.00 0.00 0.00 69 1006.9
20260505173140 61 0.0 0.0 0.00 0.00 0.00 69 1006.9
20260505172640 61 0.0 0.0 0.00 0.00 0.00 70 1007.0
20260505172139 61 0.0 0.0 0.00 0.00 0.00 70 1007.2
20260505171639 61 0.0 0.0 0.00 0.00 0.00 71 1007.3
20260505171139 60 0.0 0.0 0.00 0.00 0.00 70 1007.3
20260505170639 61 0.0 0.0 0.00 0.00 0.00 69 1007.1
20260505170138 60 0.0 0.0 0.00 0.00 0.00 71 1006.7
20260505165638 60 0.0 0.0 0.00 0.00 0.00 73 1006.8
20260505165138 60 0.0 0.0 0.00 0.00 0.00 71 1006.7
20260505164637 60 0.0 0.0 0.00 0.00 0.00 71 1006.8
20260505164137 60 0.0 0.0 0.00 0.00 0.00 71 1006.9
20260505163636 60 0.0 0.0 0.00 0.00 0.00 70 1006.8
20260505163136 60 0.0 0.0 0.00 0.00 0.00 68 1006.9
20260505162636 61 0.0 0.0 0.00 0.00 0.00 68 1007.0
20260505162135 61 0.0 0.0 0.00 0.00 0.00 67 1006.9
20260505161635 61 0.0 0.0 0.00 0.00 0.00 67 1007.1
20260505161135 61 0.0 0.0 0.00 0.00 0.00 65 1007.0
20260505160634 62 0.0 0.0 0.00 0.00 0.00 66 1006.9
20260505160134 62 0.0 0.0 0.00 0.00 0.00 68 1006.9
20260505153132 65 0.0 0.0 0.00 0.00 0.00 55 1006.5
20260505152632 70 0.0 0.0 0.00 0.00 0.00 53 1006.3
20260505152131 73 0.0 0.0 0.00 0.00 0.00 51 1006.1
20260505151631 74 0.0 0.0 0.00 0.00 0.00 39 1006.0
20260505151130 75 0.0 0.0 0.00 0.00 0.00 35 1005.8
20260505150630 75 0.0 0.0 0.00 0.00 0.00 34 1005.7
20260505150130 75 0.0 0.0 0.00 0.00 0.00 32 1005.6
20260505140625 80 0.0 0.0 0.00 0.00 0.00 27 1005.9
20260505140125 79 0.0 0.0 0.00 0.00 0.00 25 1005.9
20260505130120 83 0.0 0.0 0.00 0.00 0.00 24 1006.5
20260505124618 84 0.0 0.0 0.00 0.00 0.00 25 1006.6
20260505124118 83 0.0 0.0 0.00 0.00 0.00 24 1006.7
20260505123618 82 0.0 0.0 0.00 0.00 0.00 24 1006.7
20260505123117 82 0.0 0.0 0.00 0.00 0.00 25 1006.8
20260505122617 82 0.0 0.0 0.00 0.00 0.00 25 1006.8
20260505122116 82 0.0 0.0 0.00 0.00 0.00 25 1006.8
20260505121616 81 0.0 0.0 0.00 0.00 0.00 24 1006.9
20260505121116 82 0.0 0.0 0.00 0.00 0.00 24 1007.0
20260505120616 82 0.0 0.0 0.00 0.00 0.00 22 1007.0
20260505120115 82 0.0 0.0 0.00 0.00 0.00 23 1007.1
20260505115615 82 0.0 0.0 0.00 0.00 0.00 23 1007.1
20260505115114 85 0.0 0.0 0.00 0.00 0.00 22 1007.2
20260505114614 86 0.0 0.0 0.00 0.00 0.00 21 1007.3
20260505114113 85 0.0 0.0 0.00 0.00 0.00 20 1007.3
20260505113613 87 0.0 0.0 0.00 0.00 0.00 21 1007.2
20260505113113 84 0.0 0.0 0.00 0.00 0.00 23 1007.4
20260505112612 84 0.0 0.0 0.00 0.00 0.00 22 1007.5
20260505112112 84 0.0 0.0 0.00 0.00 0.00 22 1007.6
20260505111611 83 0.0 0.0 0.00 0.00 0.00 23 1007.5
20260505111111 85 0.0 0.0 0.00 0.00 0.00 21 1007.4
20260505110610 85 0.0 0.0 0.00 0.00 0.00 21 1007.7
20260505110110 83 0.0 0.0 0.00 0.00 0.00 23 1007.6
20260505102107 89 0.0 0.0 0.00 0.00 0.00 21 1008.1
20260505101604 87 0.0 0.0 0.00 0.00 0.00 21 1008.2
20260505101103 88 0.0 0.0 0.00 0.00 0.00 22 1008.2
20260505100603 88 0.0 0.0 0.00 0.00 0.00 20 1008.3
20260505095602 90 0.0 0.0 0.00 0.00 0.00 22 1008.3
20260505095101 91 0.0 0.0 0.00 0.00 0.00 22 1008.3
20260505094601 88 0.0 0.0 0.00 0.00 0.00 23 1008.3
20260505094101 86 0.0 0.0 0.00 0.00 0.00 25 1008.5
20260505093600 88 0.0 0.0 0.00 0.00 0.00 24 1008.6
20260505093100 88 0.0 0.0 0.00 0.00 0.00 24 1008.6
20260505092559 90 0.0 0.0 0.00 0.00 0.00 22 1008.7
20260505092059 88 0.0 0.0 0.00 0.00 0.00 22 1008.8
20260505091559 91 0.0 0.0 0.00 0.00 0.00 21 1009.0
20260505091058 90 0.0 0.0 0.00 0.00 0.00 23 1008.9
20260505090558 89 0.0 0.0 0.00 0.00 0.00 23 1008.9
20260505090058 86 0.0 0.0 0.00 0.00 0.00 26 1009.0
20260505085556 85 0.0 0.0 0.00 0.00 0.00 26 1009.1
20260505085056 89 0.0 0.0 0.00 0.00 0.00 23 1009.1
20260505084555 90 0.0 0.0 0.00 0.00 0.00 22 1009.1
20260505084055 93 0.0 0.0 0.00 0.00 0.00 19 1009.1
20260505083555 94 0.0 0.0 0.00 0.00 0.00 19 1009.2
20260505083054 92 0.0 0.0 0.00 0.00 0.00 22 1009.2
20260505082554 91 0.0 0.0 0.00 0.00 0.00 24 1009.0
20260505082054 90 0.0 0.0 0.00 0.00 0.00 24 1009.0
20260505081553 89 0.0 0.0 0.00 0.00 0.00 25 1009.0
20260505081053 88 0.0 0.0 0.00 0.00 0.00 25 1009.2
20260505080553 88 0.0 0.0 0.00 0.00 0.00 24 1009.2
20260505080052 88 0.0 0.0 0.00 0.00 0.00 26 1009.3
20260505075552 87 0.0 0.0 0.00 0.00 0.00 26 1009.3
20260505075052 89 0.0 0.0 0.00 0.00 0.00 24 1009.4
20260505074551 89 0.0 0.0 0.00 0.00 0.00 25 1009.4
20260505074051 88 0.0 0.0 0.00 0.00 0.00 25 1009.5
20260505073550 89 0.0 0.0 0.00 0.00 0.00 24 1009.4
20260505073050 89 0.0 0.0 0.00 0.00 0.00 24 1009.6
20260505072550 89 0.0 0.0 0.00 0.00 0.00 24 1009.6
20260505072049 88 0.0 0.0 0.00 0.00 0.00 26 1009.6
20260505071549 89 0.0 0.0 0.00 0.00 0.00 24 1009.7
20260505071048 88 0.0 0.0 0.00 0.00 0.00 23 1009.7
20260505070548 86 0.0 0.0 0.00 0.00 0.00 26 1009.7
20260505070047 88 0.0 0.0 0.00 0.00 0.00 26 1009.7
20260505065547 88 0.0 0.0 0.00 0.00 0.00 25 1009.7
20260505065047 86 0.0 0.0 0.00 0.00 0.00 26 1009.8
20260505064547 86 0.0 0.0 0.00 0.00 0.00 26 1009.8
20260505064046 87 0.0 0.0 0.00 0.00 0.00 27 1009.9
20260505063545 87 0.0 0.0 0.00 0.00 0.00 26 1009.8
20260505063045 86 0.0 0.0 0.00 0.00 0.00 27 1009.9
20260505062545 85 0.0 0.0 0.00 0.00 0.00 28 1009.9
20260505062045 83 0.0 0.0 0.00 0.00 0.00 30 1009.9
20260505061544 82 0.0 0.0 0.00 0.00 0.00 30 1009.9
20260505061043 79 0.0 0.0 0.00 0.00 0.00 32 1010.1
20260505060543 78 0.0 0.0 0.00 0.00 0.00 34 1010.0
20260505060044 75 0.0 0.0 0.00 0.00 0.00 36 1010.0
20260505055543 75 0.0 0.0 0.00 0.00 0.00 38 1010.0
20260505055042 77 0.0 0.0 0.00 0.00 0.00 35 1010.0
20260505054542 76 0.0 0.0 0.00 0.00 0.00 34 1009.9
20260505054041 77 0.0 0.0 0.00 0.00 0.00 33 1009.9
20260505053541 77 0.0 0.0 0.00 0.00 0.00 34 1009.9
20260505053041 77 0.0 0.0 0.00 0.00 0.00 33 1009.9
20260505052540 76 0.0 0.0 0.00 0.00 0.00 35 1009.9
20260505052040 74 0.0 0.0 0.00 0.00 0.00 37 1009.9
20260505051540 71 0.0 0.0 0.00 0.00 0.00 40 1009.9
20260505051039 68 0.0 0.0 0.00 0.00 0.00 43 1009.8
20260505050539 65 0.0 0.0 0.00 0.00 0.00 49 1009.7
20260505041535 50 0.0 0.0 0.00 0.00 0.00 69 1010.1
20260505041035 51 0.0 0.0 0.00 0.00 0.00 69 1010.0
20260505040534 51 0.0 0.0 0.00 0.00 0.00 69 1009.9
20260505040034 51 0.0 0.0 0.00 0.00 0.00 68 1010.0
20260505035534 51 0.0 0.0 0.00 0.00 0.00 68 1010.0
20260505035034 51 0.0 0.0 0.00 0.00 0.00 67 1010.0
20260505034533 51 0.0 0.0 0.00 0.00 0.00 69 1009.9
20260505034033 51 0.0 0.0 0.00 0.00 0.00 67 1009.9
20260505033532 51 0.0 0.0 0.00 0.00 0.00 67 1009.8
20260505033032 51 0.0 0.0 0.00 0.00 0.00 66 1009.9
20260505032532 52 0.0 0.0 0.00 0.00 0.00 67 1010.0
20260505032031 51 0.0 0.0 0.00 0.00 0.00 66 1010.0
20260505031531 51 0.0 0.0 0.00 0.00 0.00 67 1010.0
20260505031030 52 0.0 0.0 0.00 0.00 0.00 66 1010.0
20260505030530 52 0.0 0.0 0.00 0.00 0.00 67 1010.0
20260505030030 52 0.0 0.0 0.00 0.00 0.00 67 1010.1
20260505025529 52 0.0 0.0 0.00 0.00 0.00 67 1010.2
20260505025029 52 0.0 0.0 0.00 0.00 0.00 68 1010.2
20260505024529 52 0.0 0.0 0.00 0.00 0.00 66 1010.2
20260505024028 52 0.0 0.0 0.00 0.00 0.00 66 1010.1
20260505023528 53 0.0 0.0 0.00 0.00 0.00 66 1010.3
20260505023028 53 0.0 0.0 0.00 0.00 0.00 64 1010.2
20260505022527 53 0.0 0.0 0.00 0.00 0.00 65 1010.3
20260505022027 54 0.0 0.0 0.00 0.00 0.00 63 1010.3
20260505021527 55 0.0 0.0 0.00 0.00 0.00 62 1010.4
20260505021026 55 0.0 0.0 0.00 0.00 0.00 62 1010.4
20260505020526 56 0.0 0.0 0.00 0.00 0.00 61 1010.4
20260505020026 56 0.0 0.0 0.00 0.00 0.00 60 1010.4
20260505015525 57 0.0 0.0 0.00 0.00 0.00 59 1010.4
20260505015025 58 0.0 0.0 0.00 0.00 0.00 58 1010.4
20260505014524 58 0.0 0.0 0.00 0.00 0.00 56 1010.5
20260505014024 59 0.0 0.0 0.00 0.00 0.00 57 1010.4
20260505013523 59 0.0 0.0 0.00 0.00 0.00 56 1010.4
20260505013023 60 0.0 0.0 0.00 0.00 0.00 55 1010.5
20260505012523 60 0.0 0.0 0.00 0.00 0.00 54 1010.5
20260505012022 61 0.0 0.0 0.00 0.00 0.00 53 1010.5
20260505011522 61 0.0 0.0 0.00 0.00 0.00 52 1010.5
20260505011021 61 0.0 0.0 0.00 0.00 0.00 52 1010.4
20260505010521 61 0.0 0.0 0.00 0.00 0.00 51 1010.4
20260505010021 61 0.0 0.0 0.00 0.00 0.00 50 1010.4
20260505005520 61 0.0 0.0 0.00 0.00 0.00 50 1010.4
20260505005020 62 0.0 0.0 0.00 0.00 0.00 49 1010.4
20260505004520 62 0.0 0.0 0.00 0.00 0.00 49 1010.5
20260505004019 62 0.0 0.0 0.00 0.00 0.00 50 1010.7
20260505003519 62 0.0 0.0 0.00 0.00 0.00 49 1010.9
20260505003018 62 0.0 0.0 0.00 0.00 0.00 49 1011.1
20260505002518 63 0.0 0.0 0.00 0.00 0.00 49 1011.4
20260505002018 63 0.0 0.0 0.00 0.00 0.00 50 1011.5
20260505001517 63 0.0 0.0 0.00 0.00 0.00 50 1011.5
20260505001017 62 0.0 0.0 0.00 0.00 0.00 52 1011.6
20260505000517 63 0.0 0.0 0.00 0.00 0.00 53 1011.6
20260505000016 63 0.0 0.0 0.00 0.00 0.00 53 1011.8
20260504235516 63 0.0 0.0 0.00 0.00 0.00 54 1011.8
20260504235015 63 0.0 0.0 0.00 0.00 0.00 54 1011.6
20260504234515 63 0.0 0.0 0.00 0.00 0.00 52 1011.6
20260504234015 63 0.0 0.0 0.00 0.00 0.00 53 1011.8
20260504233514 63 0.0 0.0 0.00 0.00 0.00 52 1011.9
20260504233014 63 0.0 0.0 0.00 0.00 0.00 52 1012.0
20260504232514 63 0.0 0.0 0.00 0.00 0.00 50 1012.1
20260504232013 63 0.0 0.0 0.00 0.00 0.00 50 1012.2
20260504231513 63 0.0 0.0 0.00 0.00 0.00 50 1012.3
20260504231012 63 0.0 0.0 0.00 0.00 0.00 50 1012.3
20260504230512 63 0.0 0.0 0.00 0.00 0.00 48 1012.4
20260504230012 63 0.0 0.0 0.00 0.00 0.00 49 1012.4
20260504225511 63 0.0 0.0 0.00 0.00 0.00 48 1012.4
20260504225011 63 0.0 0.0 0.00 0.00 0.00 48 1012.4
20260504224510 63 0.0 0.0 0.00 0.00 0.00 48 1012.4
20260504224010 63 0.0 0.0 0.00 0.00 0.00 47 1012.3
20260504223509 64 0.0 0.0 0.00 0.00 0.00 47 1012.4
20260504223009 64 0.0 0.0 0.00 0.00 0.00 47 1012.5
20260504222509 64 0.0 0.0 0.00 0.00 0.00 47 1012.4
20260504222009 65 0.0 0.0 0.00 0.00 0.00 45 1012.3
20260504221508 65 0.0 0.0 0.00 0.00 0.00 44 1012.2
20260504221008 66 0.0 0.0 0.00 0.00 0.00 44 1012.1
20260504220507 66 0.0 0.0 0.00 0.00 0.00 42 1012.1
20260504220007 66 0.0 0.0 0.00 0.00 0.00 42 1012.1
20260504215506 65 0.0 0.0 0.00 0.00 0.00 42 1012.1
20260504215006 66 0.0 0.0 0.00 0.00 0.00 42 1012.0
20260504214506 66 0.0 0.0 0.00 0.00 0.00 42 1012.1
20260504214005 65 0.0 0.0 0.00 0.00 0.00 42 1012.1
20260504213505 65 0.0 0.0 0.00 0.00 0.00 42 1012.1
20260504213004 65 0.0 0.0 0.00 0.00 0.00 42 1012.2
20260504212504 66 0.0 0.0 0.00 0.00 0.00 41 1012.3
20260504212004 66 0.0 0.0 0.00 0.00 0.00 41 1012.3
20260504211503 66 0.0 0.0 0.00 0.00 0.00 42 1012.3
20260504211003 66 0.0 0.0 0.00 0.00 0.00 42 1012.3
20260504210503 66 0.0 0.0 0.00 0.00 0.00 42 1012.3
20260504210003 66 0.0 0.0 0.00 0.00 0.00 42 1012.3
20260504205502 66 0.0 0.0 0.00 0.00 0.00 40 1012.2
20260504205002 66 0.0 0.0 0.00 0.00 0.00 40 1012.1
20260504204501 66 0.0 0.0 0.00 0.00 0.00 41 1012.1
20260504204001 66 0.0 0.0 0.00 0.00 0.00 41 1012.3
20260504203501 65 0.0 0.0 0.00 0.00 0.00 41 1012.2
20260504203000 65 0.0 0.0 0.00 0.00 0.00 40 1012.2
20260504202500 66 0.0 0.0 0.00 0.00 0.00 41 1012.2
20260504201959 66 0.0 0.0 0.00 0.00 0.00 41 1012.3
20260504201459 66 0.0 0.0 0.00 0.00 0.00 41 1012.2
20260504200958 66 0.0 0.0 0.00 0.00 0.00 41 1012.2
20260504200458 66 0.0 0.0 0.00 0.00 0.00 40 1012.2
20260504195958 66 0.0 0.0 0.00 0.00 0.00 40 1012.2
20260504195457 66 0.0 0.0 0.00 0.00 0.00 39 1012.2
20260504194957 66 0.0 0.0 0.00 0.00 0.00 39 1012.3
20260504194457 67 0.0 0.0 0.00 0.00 0.00 39 1012.3
20260504193956 67 0.0 0.0 0.00 0.00 0.00 38 1012.2
20260504193456 67 0.0 0.0 0.00 0.00 0.00 39 1012.2
20260504192956 67 0.0 0.0 0.00 0.00 0.00 38 1012.3
20260504192456 68 0.0 0.0 0.00 0.00 0.00 38 1012.3
20260504191955 67 0.0 0.0 0.00 0.00 0.00 38 1012.3
20260504191455 68 0.0 0.0 0.00 0.00 0.00 38 1012.1
20260504190955 68 0.0 0.0 0.00 0.00 0.00 38 1012.2
20260504190454 68 0.0 0.0 0.00 0.00 0.00 38 1012.2
20260504185954 68 0.0 0.0 0.00 0.00 0.00 37 1012.2
20260504185453 68 0.0 0.0 0.00 0.00 0.00 37 1012.2
20260504184953 68 0.0 0.0 0.00 0.00 0.00 37 1012.1
20260504184453 69 0.0 0.0 0.00 0.00 0.00 37 1012.1
20260504183952 69 0.0 0.0 0.00 0.00 0.00 36 1012.1
20260504183452 69 0.0 0.0 0.00 0.00 0.00 35 1012.1
20260504182951 69 0.0 0.0 0.00 0.00 0.00 35 1012.1
20260504182451 70 0.0 0.0 0.00 0.00 0.00 35 1012.1
20260504181950 70 0.0 0.0 0.00 0.00 0.00 34 1012.0
20260504181450 70 0.0 0.0 0.00 0.00 0.00 34 1012.0
20260504180950 71 0.0 0.0 0.00 0.00 0.00 33 1011.9
20260504180449 71 0.0 0.0 0.00 0.00 0.00 33 1011.9
20260504175949 72 0.0 0.0 0.00 0.00 0.00 33 1011.9
20260504175449 72 0.0 0.0 0.00 0.00 0.00 33 1011.9
20260504174948 72 0.0 0.0 0.00 0.00 0.00 32 1011.9
20260504174448 72 0.0 0.0 0.00 0.00 0.00 31 1011.9
20260504173947 73 0.0 0.0 0.00 0.00 0.00 31 1011.9